Location: *
(40.7873°S, 98.7174°E)
Time: 20:26:35
(UTC+00:00)

Cosmos 1153 Rocket - Pass Details

Date: 13 October 2022
Orbit: 953 x 1007 km, 82.9° (Epoch: 05 December)

Event Time Altitude Azimuth Distance (km) Brightness Sun altitude
Rises 19:31:06 0° 196° (SSW) 3,672 7.9 -31.6°
Reaches altitude 10° 19:33:46 10° 203° (SSW) 2,716 7.1 -31.2°
Enters shadow 19:36:56 27° 224° (SW) 1,756 5.8 -30.8°
